EW1701 Weather Reports


time (UTC)temp
C
wind
direction
speed
KPH
gust
KPH
rain 1hr
cm
rain 24hr
cm
rain mn
cm
humidity
%
barometer
mb
20260508121551 14 0 1.6 9.7 0.00 0.00 0.00 50 1017.7
20260508120055 14 0 0.0 8.0 0.00 0.00 0.00 50 1017.8
20260508114540 16 255 4.8 12.9 0.00 0.00 0.00 45 1017.6
20260508113046 16 184 6.4 17.7 0.00 0.00 0.00 45 1017.4
20260508111544 16 118 3.2 14.5 0.00 0.00 0.00 44 1017.2
20260508110046 17 156 4.8 22.5 0.00 0.00 0.00 42 1017.1
20260508104545 17 169 6.4 19.3 0.00 0.00 0.00 43 1017.2
20260508103052 16 257 6.4 17.7 0.00 0.00 0.00 44 1017.4
20260508101548 16 192 6.4 17.7 0.00 0.00 0.00 44 1017.3
20260508100059 15 221 3.2 12.9 0.00 0.00 0.00 46 1017.4
20260508094549 15 204 3.2 12.9 0.00 0.00 0.00 48 1017.3
20260508093043 15 186 6.4 14.5 0.00 0.00 0.00 48 1017.3
20260508091547 14 177 3.2 14.5 0.00 0.00 0.00 48 1017.3
20260508090109 14 171 6.4 14.5 0.00 0.00 0.00 48 1017.3
20260508084548 13 187 1.6 11.3 0.00 0.00 0.00 49 1017.2
20260508083044 13 188 6.4 14.5 0.00 0.00 0.00 51 1017.2
20260508081600 12 198 8.0 14.5 0.00 0.00 0.00 52 1017.2
20260508080048 12 175 4.8 12.9 0.00 0.00 0.00 55 1017.2
20260508074550 11 0 3.2 12.9 0.00 0.00 0.00 56 1017.1
20260508073102 11 244 6.4 14.5 0.00 0.00 0.00 58 1016.9
20260508071551 10 207 6.4 14.5 0.00 0.00 0.00 59 1016.9
20260508070051 10 200 8.0 19.3 0.00 0.00 0.00 60 1016.8
20260508064554 10 183 3.2 12.9 0.00 0.00 0.00 62 1016.7
20260508063045 9 180 3.2 14.5 0.00 0.00 0.00 64 1016.5
20260508061547 8 219 3.2 9.7 0.00 0.00 0.00 65 1016.4
20260508054549 8 209 3.2 8.0 0.00 0.00 0.00 67 1016.3
20260508053048 7 187 3.2 11.3 0.00 0.00 0.00 67 1016.1
20260508051605 7 242 3.2 11.3 0.00 0.00 0.00 66 1016.0
20260508050044 7 0 3.2 8.0 0.00 0.00 0.00 67 1015.8
20260508044548 7 216 1.6 4.8 0.00 0.00 0.00 66 1015.9
20260508043050 7 0 0.0 4.8 0.00 0.00 0.00 66 1015.8
20260508041548 8 0 0.0 6.4 0.00 0.00 0.00 66 1015.9
20260508040055 7 199 1.6 6.4 0.00 0.00 0.00 66 1015.7
20260508034550 7 0 0.0 6.4 0.00 0.00 0.00 66 1015.6
20260508033054 7 207 0.0 4.8 0.00 0.00 0.00 67 1015.6
20260508031555 7 0 1.6 8.0 0.00 0.00 0.00 67 1015.5
20260508030058 7 182 0.0 4.8 0.00 0.00 0.00 66 1015.5
20260508024613 7 182 0.0 6.4 0.00 0.00 0.00 65 1015.5
20260508023045 7 186 1.6 8.0 0.00 0.00 0.00 65 1015.5
20260508021549 8 178 0.0 8.0 0.00 0.00 0.00 64 1015.5
20260508020052 8 201 0.0 9.7 0.00 0.00 0.00 64 1015.6
20260508014550 8 0 0.0 9.7 0.00 0.00 0.00 64 1015.5
20260508013051 8 181 1.6 12.9 0.00 0.00 0.00 63 1015.6
20260508011549 8 159 4.8 12.9 0.00 0.00 0.00 63 1015.5
20260508010052 9 0 3.2 12.9 0.00 0.00 0.00 63 1015.6
20260508004552 9 151 1.6 9.7 0.00 0.00 0.00 63 1015.5
20260508003052 9 167 1.6 9.7 0.00 0.00 0.00 62 1015.7
20260508001547 9 173 4.8 14.5 0.00 0.00 0.00 62 1015.7
20260508000053 9 188 4.8 17.7 0.00 0.00 0.00 61 1015.8
20260507234556 10 174 4.8 19.3 0.00 0.00 0.00 61 1015.6
20260507233058 10 151 8.0 19.3 0.00 0.00 0.00 60 1015.6
20260507231552 10 193 4.8 22.5 0.00 0.00 0.00 59 1015.6
20260507224554 10 220 6.4 19.3 0.00 0.00 0.00 57 1015.5
20260507223051 10 168 4.8 16.1 0.00 0.00 0.00 57 1015.6
20260507221554 10 205 3.2 9.7 0.00 0.00 0.00 57 1015.4
20260507220052 10 155 3.2 11.3 0.00 0.00 0.00 58 1015.5
20260507214550 10 142 1.6 11.3 0.00 0.00 0.00 58 1015.6
20260507213044 10 222 1.6 8.0 0.00 0.00 0.00 58 1015.5
20260507211556 10 0 0.0 8.0 0.00 0.00 0.00 57 1015.5
20260507210105 10 0 0.0 6.4 0.00 0.00 0.00 56 1015.3
20260507204548 10 139 1.6 11.3 0.00 0.00 0.00 56 1015.3
20260507203115 10 171 1.6 8.0 0.00 0.00 0.00 55 1015.1
20260507201553 11 167 0.0 4.8 0.00 0.00 0.00 54 1015.2
20260507200054 11 0 0.0 6.4 0.00 0.00 0.00 54 1015.1
20260507194601 11 0 1.6 6.4 0.00 0.00 0.00 54 1014.9
20260507193049 11 138 0.0 8.0 0.00 0.00 0.00 54 1014.9
20260507191551 11 126 0.0 6.4 0.00 0.00 0.00 54 1014.6
20260507190057 11 0 0.0 6.4 0.00 0.00 0.00 54 1014.6
20260507184552 11 0 0.0 9.7 0.00 0.00 0.00 53 1014.6
20260507183050 12 0 1.6 6.4 0.00 0.00 0.00 53 1014.6
20260507181551 12 0 0.0 8.0 0.00 0.00 0.00 53 1014.6
20260507180055 12 0 3.2 14.5 0.00 0.00 0.00 52 1014.6
20260507174556 12 161 1.6 9.7 0.00 0.00 0.00 53 1014.6
20260507173125 12 0 3.2 11.3 0.00 0.00 0.00 53 1014.7
20260507171557 12 140 1.6 12.9 0.00 0.00 0.00 53 1014.7
20260507170053 12 194 1.6 14.5 0.00 0.00 0.00 53 1014.9
20260507164555 12 169 3.2 11.3 0.00 0.00 0.00 53 1015.0
20260507163055 12 192 4.8 19.3 0.00 0.00 0.00 53 1015.0
20260507161559 12 180 4.8 14.5 0.00 0.00 0.00 52 1015.0
20260507160100 11 159 6.4 22.5 0.00 0.00 0.00 53 1015.0
20260507154545 11 200 6.4 16.1 0.00 0.00 0.00 53 1015.1
20260507153057 11 192 4.8 16.1 0.00 0.00 0.00 54 1015.1
20260507151548 11 201 8.0 16.1 0.00 0.00 0.00 54 1015.2
20260507150048 11 196 9.7 17.7 0.00 0.00 0.00 54 1015.3
20260507144548 11 189 9.7 22.5 0.00 0.00 0.00 53 1015.3
20260507143057 11 193 9.7 19.3 0.00 0.00 0.00 53 1015.4
20260507141558 11 186 8.0 20.9 0.00 0.00 0.00 52 1015.4
20260507140053 12 184 9.7 24.1 0.00 0.00 0.00 51 1015.5
20260507134554 12 200 8.0 29.0 0.00 0.00 0.00 53 1015.5
20260507133125 12 178 8.0 29.0 0.00 0.00 0.00 54 1015.7
20260507131548 11 204 11.3 24.1 0.00 0.00 0.00 54 1015.6
20260507130058 12 194 6.4 27.4 0.00 0.00 0.00 53 1015.6
20260507124609 12 184 8.0 24.1 0.00 0.00 0.00 52 1015.6
20260507123048 12 192 8.0 22.5 0.00 0.00 0.00 51 1015.5